Weather History for KCNK - November, 2012

Change the Weather History Date:

Saturday, November 10, 2012

  Actual Average Record
Temperature  
Mean Temperature 58 °F 45 °F  
Max Temperature 75 °F 56 °F 80 °F (1927)
Min Temperature 41 °F 34 °F 9 °F (1986)
Degree Days  
Heating Degree Days 7 20  
Month to date heating degree days 136 180  
Since 1 July heating degree days 583 571  
Cooling Degree Days 0 0  
Month to date cooling degree days 0 0  
Year to date cooling degree days 1643 1348  
Growing Degree Days 8 (Base 50)    
Moisture  
Dew Point 51 °F    
Average Humidity 68    
Maximum Humidity 86    
Minimum Humidity 50    
Precipitation  
Precipitation 0.45 in 0.04 in 0.84 in (1915)
Month to date precipitation 0.45 0.45  
Year to date precipitation 23.08 26.38  
Snow  
Snow 0.00 in 0.00 in 2.30 in (1995)
Month to date snowfall 0.0 0.4  
Year to date snowfall 5.8 14.3  
Since 1 July snowfall 0.0 0.6  
Snow Depth -    
Sea Level Pressure  
Sea Level Pressure 29.57 in    
Wind  
Wind Speed 23 mph (SSW)    
Max Wind Speed 37 mph    
Max Gust Speed 49 mph    
Visibility 9 miles    
Events Rain , Thunderstorm    
T = Trace of Precipitation, MM = Missing Value Source: NWS Daily Summary

Daily Weather History Graph

Daily Weather History Graph

Search for Another Location

Airport or City:

Trip Planner

Search our weather history database for the weather conditions in past years. The results will help you decide how hot, cold, wet, or windy it might be!

Date:

Astronomy

Nov. 10, 2012 Rise Set
Actual Time 7:09 AM CST 5:19 PM CST
Civil Twilight 6:41 AM CST 5:47 PM CST
Nautical Twilight 6:08 AM CST 6:19 PM CST
Astronomical Twilight 5:37 AM CST 6:51 PM CST
Moon 3:16 AM CST (11/10) 3:06 PM CST (11/10)
Length of Visible Light 11h 06m
Length of Day
10h 09m
Waning Crescent, 14% of the Moon is Illuminated
Nov 10
Waning Crescent
Nov 13
New
Nov 20
First Quarter
Nov 28
Full
Dec 6
Last Quarter

Hourly Weather History & Observations

Time (CST) Temp. Windchill Dew Point Humidity Pressure Visibility Wind Dir Wind Speed Gust Speed Precip Events Conditions
12:55 AM 66.9 °F - 55.0 °F 66% 29.59 in 10.0 mi South 21.9 mph 29.9 mph N/A   Clear
1:55 AM 64.9 °F - 54.0 °F 68% 29.58 in 10.0 mi South 13.8 mph - N/A   Clear
2:55 AM 64.9 °F - 54.0 °F 68% 29.58 in 10.0 mi South 15.0 mph - N/A   Clear
3:55 AM 64.9 °F - 53.1 °F 65% 29.57 in 10.0 mi South 19.6 mph 24.2 mph N/A   Clear
4:55 AM 63.0 °F - 53.1 °F 70% 29.59 in 10.0 mi South 18.4 mph 24.2 mph N/A   Clear
5:55 AM 64.0 °F - 50.0 °F 60% 29.59 in 10.0 mi SSW 20.7 mph - N/A   Clear
6:55 AM 63.0 °F - 51.1 °F 65% 29.60 in 10.0 mi South 18.4 mph 25.3 mph N/A   Clear
7:55 AM 63.0 °F - 53.1 °F 70% 29.62 in 10.0 mi South 18.4 mph 25.3 mph N/A   Clear
8:55 AM 66.9 °F - 54.0 °F 63% 29.60 in 10.0 mi South 24.2 mph 32.2 mph N/A   Clear
9:55 AM 68.0 °F - 55.0 °F 63% 29.60 in 10.0 mi South 21.9 mph 31.1 mph N/A   Clear
10:55 AM 71.1 °F - 55.0 °F 57% 29.57 in 10.0 mi South 29.9 mph 44.9 mph N/A   Clear
11:55 AM 73.9 °F - 55.0 °F 52% 29.56 in 10.0 mi South 20.7 mph 34.5 mph N/A   Clear
12:55 PM 73.9 °F - 55.0 °F 52% 29.52 in 10.0 mi South 32.2 mph 42.6 mph N/A   Clear
1:55 PM 75.0 °F - 55.0 °F 50% 29.49 in 10.0 mi South 19.6 mph 36.8 mph N/A   Clear
2:55 PM 73.9 °F - 55.0 °F 52% 29.48 in 10.0 mi South 25.3 mph 41.4 mph N/A   Clear
3:55 PM 73.0 °F - 55.9 °F 55% 29.49 in 10.0 mi South 33.4 mph 47.2 mph N/A   Clear
4:55 PM 70.0 °F - 55.0 °F 59% 29.49 in 10.0 mi South 24.2 mph 44.9 mph N/A   Clear
5:55 PM 69.1 °F - 55.0 °F 61% 29.47 in 10.0 mi South 28.8 mph 38.0 mph N/A   Clear
6:55 PM 70.0 °F - 55.9 °F 61% 29.47 in 10.0 mi South 32.2 mph 43.7 mph N/A Thunderstorm Clear
7:41 PM 62.6 °F - 53.6 °F 72% 29.56 in 2.5 mi SW 29.9 mph 49.5 mph 0.00 in Rain , Thunderstorm Thunderstorms and Rain
7:44 PM 62.6 °F - 53.6 °F 72% 29.57 in 1.2 mi SSW 26.5 mph 49.5 mph 0.11 in Rain , Thunderstorm Heavy Thunderstorms and Rain
7:55 PM 57.0 °F - 53.1 °F 87% 29.51 in 1.8 mi South 20.7 mph 31.1 mph 0.44 in Rain , Thunderstorm Thunderstorms and Rain
7:58 PM 57.2 °F - 51.8 °F 82% 29.52 in 3.0 mi South 16.1 mph 28.8 mph 0.00 in Rain , Thunderstorm Light Thunderstorms and Rain
8:06 PM 57.2 °F - 53.6 °F 88% 29.54 in 10.0 mi South 23.0 mph 29.9 mph 0.01 in Rain , Thunderstorm Light Thunderstorms and Rain
8:20 PM 57.2 °F - 51.8 °F 82% 29.52 in 10.0 mi South 26.5 mph 38.0 mph 0.01 in Rain Light Rain
8:55 PM 55.0 °F - 50.0 °F 83% 29.51 in 10.0 mi South 19.6 mph 28.8 mph 0.01 in   Mostly Cloudy
9:55 PM 57.2 °F - 53.6 °F 88% 29.58 in 10.0 mi SSW 26.5 mph 34.5 mph N/A   Mostly Cloudy
10:09 PM 59.0 °F - 53.6 °F 82% 29.60 in 10.0 mi SW 19.6 mph 29.9 mph N/A   Mostly Cloudy
10:53 PM 46.4 °F 38.3 °F 42.8 °F 87% 29.66 in 10.0 mi NNW 23.0 mph 31.1 mph N/A   Overcast
10:55 PM 46.9 °F - 43.0 °F 86% 29.64 in 10.0 mi NNW 24.2 mph 31.1 mph N/A   Overcast
11:13 PM 44.6 °F 36.9 °F 39.2 °F 81% 29.67 in 10.0 mi NNW 18.4 mph 31.1 mph N/A   Overcast
11:40 PM 42.8 °F 33.5 °F 37.4 °F 81% 29.68 in 10.0 mi NNW 23.0 mph 31.1 mph N/A   Overcast
11:55 PM 41.0 °F 31.4 °F 36.0 °F 82% 29.69 in 10.0 mi NNW 21.9 mph 29.9 mph N/A   Overcast